Location: Derby
(52.9213°N, 1.4761°W)
Time: 14:59:53
(UTC+01:00)

Transit 2A Rocket - All Passes

Search period start: 18 May 2025 00:00
Search period end: 28 May 2025 00:00
Orbit: 591 x 895 km, 66.7° (Epoch: 17 May)

Date Brightness Start Highest point End Pass type
(mag) Time Alt. Az. Time Alt. Az. Time Alt. Az.
18 May - 12:02:57 10° SSE 12:06:18 22° ESE 12:09:37 10° ENE daylight
18 May - 13:43:58 10° SW 13:48:16 63° NW 13:52:34 10° NE daylight
18 May - 15:28:18 10° WNW 15:31:27 19° NNW 15:34:38 10° NNE daylight
18 May - 17:13:10 10° NNW 17:15:28 14° N 17:17:48 10° NE daylight
18 May - 18:55:44 10° NNW 18:59:21 24° NNE 19:03:07 10° E daylight
18 May - 20:37:46 10° NW 20:42:16 87° NE 20:47:07 10° SE daylight
18 May - 22:21:06 10° WNW 22:24:07 17° WSW 22:27:16 10° SSW visible
19 May - 11:19:41 10° SE 11:21:30 12° ESE 11:23:19 10° E daylight
19 May - 12:58:46 10° SSW 13:03:07 79° SE 13:07:26 10° NE daylight
19 May - 14:42:20 10° W 14:45:56 25° NNW 14:49:34 10° NNE daylight
19 May - 16:27:28 10° NW 16:29:47 14° N 16:32:07 10° NNE daylight
19 May - 18:10:40 10° NNW 18:13:49 19° NNE 18:17:05 10° ENE daylight
19 May - 19:52:40 10° NW 19:57:04 55° NE 20:01:47 10° ESE daylight
19 May - 21:35:18 10° WNW 21:39:14 29° WSW 21:43:25 10° S daylight
20 May - 12:13:54 10° SSW 12:18:03 45° ESE 12:22:10 10° NE daylight
20 May - 13:56:32 10° WSW 14:00:31 35° NW 14:04:31 10° NNE daylight
20 May - 15:41:32 10° NW 15:44:07 15° NNW 15:46:43 10° NNE daylight
20 May - 17:25:30 10° NNW 17:28:13 16° NNE 17:31:00 10° NE daylight
20 May - 19:07:37 10° NNW 19:11:46 37° NE 19:16:11 10° ESE daylight
20 May - 20:49:53 10° NW 20:54:15 48° WSW 20:58:56 10° SSE daylight
21 May - 11:29:29 10° S 11:33:07 26° ESE 11:36:42 10° ENE daylight
21 May - 13:10:57 10° WSW 13:15:12 53° NW 13:19:27 10° NE daylight
21 May - 14:55:29 10° WNW 14:58:29 18° NNW 15:01:32 10° NNE daylight
21 May - 16:40:10 10° NNW 16:42:33 14° N 16:44:59 10° NE daylight
21 May - 18:22:34 10° NNW 18:26:22 27° NNE 18:30:20 10° E daylight
21 May - 20:04:39 10° NW 20:09:10 80° SW 20:14:02 10° SSE daylight
21 May - 21:48:22 10° WNW 21:50:54 15° WSW 21:53:33 10° SW visible
22 May - 10:45:45 10° SE 10:48:16 15° ESE 10:50:46 10° ENE daylight
22 May - 12:25:39 10° SW 12:29:59 87° NW 12:34:20 10° NE daylight
22 May - 14:09:29 10° W 14:12:56 23° NNW 14:16:26 10° NNE daylight
22 May - 15:54:34 10° NNW 15:56:52 14° N 15:59:12 10° NNE daylight
22 May - 17:37:31 10° NNW 17:40:51 20° NNE 17:44:20 10° ENE daylight
22 May - 19:19:31 10° NW 19:24:00 65° NE 19:28:48 10° SE daylight
22 May - 21:02:19 10° WNW 21:06:03 25° WSW 21:10:00 10° SSW daylight
23 May - 11:40:40 10° SSW 11:44:53 55° ESE 11:49:07 10° NE daylight
23 May - 13:23:37 10° W 13:27:28 31° NW 13:31:23 10° NNE daylight
23 May - 15:08:41 10° NW 15:11:10 15° N 15:13:42 10° NNE daylight
23 May - 16:52:22 10° NNW 16:55:16 17° NNE 16:58:14 10° ENE daylight
23 May - 18:34:26 10° NNW 18:38:43 42° NE 18:43:16 10° ESE daylight
23 May - 20:16:49 10° NW 20:21:05 41° WSW 20:25:42 10° S daylight
24 May - 10:56:04 10° S 10:59:54 31° ESE 11:03:43 10° NE daylight
24 May - 12:37:57 10° WSW 12:42:07 46° NW 12:46:18 10° NNE daylight
24 May - 14:22:40 10° WNW 14:25:32 17° NNW 14:28:25 10° NNE daylight
24 May - 16:07:07 10° NNW 16:09:37 15° N 16:12:11 10° NE daylight
24 May - 17:49:23 10° NNW 17:53:21 30° NE 17:57:31 10° E daylight
24 May - 19:31:31 10° NW 19:36:02 68° SW 19:40:54 10° SSE daylight
24 May - 21:15:50 10° W 21:17:40 12° WSW 21:19:33 10° SW daylight
25 May - 10:12:02 10° SSE 10:15:01 18° ESE 10:17:59 10° ENE daylight
25 May - 11:52:32 10° SW 11:56:52 74° NW 12:01:12 10° NE daylight
25 May - 13:36:38 10° WNW 13:39:56 21° NNW 13:43:17 10° NNE daylight
25 May - 15:21:36 10° NNW 15:23:55 14° N 15:26:17 10° NNE daylight
25 May - 17:04:20 10° NNW 17:07:52 22° NNE 17:11:33 10° E daylight
25 May - 18:46:21 10° NW 18:50:53 76° NE 18:55:46 10° SE daylight
25 May - 20:29:23 10° WNW 20:32:51 21° WSW 20:36:29 10° SSW daylight
26 May - 09:29:59 10° ESE 09:30:15 10° ESE 09:30:31 10° ESE daylight
26 May - 11:07:26 10° SSW 11:11:43 66° SE 11:16:01 10° NE daylight
26 May - 12:50:42 10° W 12:54:26 28° NNW 12:58:13 10° NNE daylight
26 May - 14:35:48 10° NW 14:38:14 14° N 14:40:40 10° NNE daylight
26 May - 16:19:14 10° NNW 16:22:17 18° NNE 16:25:28 10° ENE daylight
26 May - 18:01:16 10° NNW 18:05:38 49° NE 18:10:21 10° ESE daylight
26 May - 19:43:45 10° NW 19:47:55 34° WSW 19:52:22 10° S daylight
27 May - 10:22:41 10° S 10:26:41 38° ESE 10:30:41 10° NE daylight
27 May - 12:04:57 10° WSW 12:09:01 39° NW 12:13:08 10° NNE daylight
27 May - 13:49:49 10° NW 13:52:32 16° NNW 13:55:19 10° NNE daylight
27 May - 15:34:00 10° NNW 15:36:39 15° NNE 15:39:22 10° NE daylight
27 May - 17:16:12 10° NNW 17:20:17 33° NE 17:24:39 10° E daylight
27 May - 18:58:23 10° NW 19:02:53 57° WSW 19:07:44 10° SSE daylight
